{"data":{"norad_id":60246,"epoch":"2026-09-22T13:40:57.117792Z","epoch_age_seconds":102235,"freshness":"FRESH","line1":"1 60246U 24125J   26265.57010553  .00101252  00000+0  72689-3 0  9994","line2":"2 60246  97.1936 120.2361 0015349 169.2561 190.9034 15.73188159122629","mean_motion":15.73188159,"eccentricity":0.0015349,"inclination_deg":97.1936,"raan_deg":120.2361,"arg_perigee_deg":169.2561,"mean_anomaly_deg":190.9034,"bstar":0.00072689,"rev_number":12262,"period_min":91.533869725751,"perigee_km":339.46523497206,"apogee_km":360.11863121086,"semimajor_km":6727.9289330915,"source":"CELESTRAK","updated_at":"2026-09-23T09:00:20.491101Z"}}